• In Netherlands
  • List of Countries
  • For 7 days
  • Water Temperature
  • Satellite Maps
  • Weather Map
  • Weather Widgets
  • user-avatar
    Login

    Hourly Weather Berat

    Today, 21 July, Friday

    Time Temperature Precipitation Wind Pressure Humidity
    00:00 +24°C° 0 mm 1 mps 743 mmHg 64%
    01:00 +24°C° 0 mm 1 mps 743 mmHg 64%
    02:00 +23°C° 0 mm 1 mps 743 mmHg 65%
    03:00 +23°C° 0 mm 1 mps 743 mmHg 65%
    04:00 +23°C° 0 mm 1 mps 743 mmHg 66%
    05:00 +25°C° 0 mm 1 mps 743 mmHg 61%
    06:00 +27°C° 0 mm 1 mps 744 mmHg 57%
    07:00 +29°C° 0 mm 1 mps 744 mmHg 52%
    08:00 +30°C° 0 mm 1 mps 744 mmHg 47%
    09:00 +32°C° 0 mm 1 mps 744 mmHg 42%
    10:00 +34°C° 0 mm 1 mps 744 mmHg 37%
    11:00 +35°C° 0 mm 2 mps 744 mmHg 35%
    12:00 +36°C° 0 mm 3 mps 744 mmHg 34%
    13:00 +37°C° 0 mm 3 mps 744 mmHg 32%
    14:00 +36°C° 0 mm 3 mps 744 mmHg 34%
    15:00 +36°C° 0 mm 3 mps 743 mmHg 36%
    16:00 +35°C° 0 mm 3 mps 743 mmHg 37%
    17:00 +33°C° 0 mm 3 mps 743 mmHg 43%
    18:00 +30°C° 0 mm 2 mps 743 mmHg 49%
    19:00 +28°C° 0 mm 1 mps 743 mmHg 55%
    20:00 +27°C° 0 mm 1 mps 744 mmHg 56%
    21:00 +27°C° 0 mm 1 mps 744 mmHg 58%
    22:00 +26°C° 0 mm 1 mps 744 mmHg 60%
    23:00 +26°C° 0 mm 1 mps 744 mmHg 60%

    Tomorrow, 22 July, Saturday

    Time Temperature Precipitation Wind Pressure Humidity
    00:00 +25°C° 0 mm 1 mps 744 mmHg 60%
    01:00 +25°C° 0 mm 1 mps 744 mmHg 60%
    02:00 +25°C° 0 mm 1 mps 744 mmHg 60%
    03:00 +25°C° 0 mm 1 mps 744 mmHg 60%
    04:00 +25°C° 0 mm 1 mps 744 mmHg 60%
    05:00 +27°C° 0 mm 1 mps 745 mmHg 56%
    06:00 +28°C° 0 mm 1 mps 745 mmHg 52%
    07:00 +30°C° 0 mm 1 mps 745 mmHg 47%
    08:00 +32°C° 0 mm 1 mps 745 mmHg 42%
    09:00 +34°C° 0 mm 1 mps 745 mmHg 38%
    10:00 +36°C° 0 mm 2 mps 745 mmHg 33%
    11:00 +37°C° 0 mm 2 mps 745 mmHg 32%
    12:00 +38°C° 0 mm 3 mps 745 mmHg 30%
    13:00 +38°C° 0 mm 3 mps 745 mmHg 29%
    14:00 +38°C° 0 mm 3 mps 744 mmHg 29%
    15:00 +38°C° 0 mm 3 mps 744 mmHg 30%
    16:00 +37°C° 0 mm 4 mps 744 mmHg 31%
    17:00 +35°C° 0 mm 3 mps 744 mmHg 36%
    18:00 +31°C° 0 mm 2 mps 744 mmHg 41%
    19:00 +29°C° 0 mm 1 mps 744 mmHg 47%
    20:00 +28°C° 0 mm 1 mps 744 mmHg 47%
    21:00 +27°C° 0 mm 1 mps 745 mmHg 47%
    22:00 +26°C° 0 mm 1 mps 745 mmHg 48%
    23:00 +26°C° 0 mm 1 mps 745 mmHg 47%

    Day after tomorrow, 23 July, Sunday

    Time Temperature Precipitation Wind Pressure Humidity
    00:00 +26°C° 0 mm 1 mps 745 mmHg 47%
    01:00 +26°C° 0 mm 1 mps 745 mmHg 46%
    02:00 +25°C° 0 mm 1 mps 744 mmHg 46%
    03:00 +25°C° 0 mm 1 mps 744 mmHg 45%
    04:00 +25°C° 0 mm 1 mps 744 mmHg 45%
    05:00 +27°C° 0 mm 1 mps 744 mmHg 43%
    06:00 +29°C° 0 mm 1 mps 744 mmHg 40%
    07:00 +31°C° 0 mm 1 mps 744 mmHg 38%
    08:00 +33°C° 0 mm 1 mps 744 mmHg 34%
    09:00 +35°C° 0 mm 2 mps 744 mmHg 31%
    10:00 +37°C° 0 mm 3 mps 744 mmHg 28%
    11:00 +38°C° 0 mm 3 mps 744 mmHg 27%
    12:00 +38°C° 0 mm 4 mps 743 mmHg 26%
    13:00 +40°C° 0 mm 4 mps 743 mmHg 25%
    14:00 +38°C° 0 mm 4 mps 743 mmHg 27%
    15:00 +38°C° 0 mm 4 mps 743 mmHg 28%
    16:00 +37°C° 0 mm 4 mps 742 mmHg 29%
    17:00 +35°C° 0 mm 4 mps 742 mmHg 35%
    18:00 +31°C° 0 mm 3 mps 743 mmHg 41%
    19:00 +29°C° 0 mm 2 mps 743 mmHg 47%
    20:00 +28°C° 0 mm 2 mps 743 mmHg 49%
    21:00 +27°C° 0 mm 2 mps 743 mmHg 50%
    22:00 +26°C° 0 mm 1 mps 743 mmHg 52%
    23:00 +26°C° 0 mm 1 mps 743 mmHg 51%

    24 July, Monday

    Time Temperature Precipitation Wind Pressure Humidity
    00:00 +25°C° 0 mm 1 mps 743 mmHg 51%
    01:00 +25°C° 0 mm 1 mps 742 mmHg 51%
    02:00 +25°C° 0 mm 1 mps 742 mmHg 51%
    03:00 +25°C° 0 mm 1 mps 742 mmHg 51%
    04:00 +25°C° 0 mm 1 mps 741 mmHg 50%
    05:00 +27°C° 0 mm 1 mps 742 mmHg 47%
    06:00 +29°C° 0 mm 1 mps 742 mmHg 44%
    07:00 +31°C° 0 mm 1 mps 742 mmHg 41%
    08:00 +32°C° 0 mm 1 mps 742 mmHg 37%
    09:00 +34°C° 0 mm 1 mps 742 mmHg 33%
    10:00 +36°C° 0 mm 1 mps 742 mmHg 30%
    11:00 +38°C° 0 mm 2 mps 741 mmHg 28%
    12:00 +38°C° 0 mm 2 mps 741 mmHg 25%
    13:00 +39°C° 0 mm 3 mps 740 mmHg 23%
    14:00 +39°C° 0 mm 3 mps 740 mmHg 24%
    15:00 +39°C° 0 mm 3 mps 740 mmHg 24%
    16:00 +39°C° 0 mm 3 mps 739 mmHg 24%
    17:00 +36°C° 0 mm 2 mps 739 mmHg 29%
    18:00 +32°C° 0 mm 2 mps 739 mmHg 35%
    19:00 +30°C° 0 mm 1 mps 739 mmHg 40%
    20:00 +29°C° 0 mm 1 mps 739 mmHg 42%
    21:00 +28°C° 0 mm 2 mps 739 mmHg 43%
    22:00 +27°C° 0 mm 2 mps 739 mmHg 45%
    23:00 +27°C° 0 mm 3 mps 739 mmHg 46%

    25 July, Tuesday

    Time Temperature Precipitation Wind Pressure Humidity
    00:00 +26°C° 0 mm 3 mps 738 mmHg 48%
    01:00 +26°C° 0 mm 4 mps 738 mmHg 49%
    02:00 +25°C° 0 mm 3 mps 738 mmHg 49%
    03:00 +25°C° 0 mm 3 mps 738 mmHg 49%
    04:00 +25°C° 0 mm 3 mps 738 mmHg 49%
    05:00 +26°C° 0 mm 3 mps 738 mmHg 48%
    06:00 +28°C° 0 mm 3 mps 738 mmHg 47%
    07:00 +29°C° 0 mm 3 mps 738 mmHg 46%
    08:00 +31°C° 0 mm 3 mps 738 mmHg 43%
    09:00 +33°C° 0 mm 3 mps 738 mmHg 39%
    10:00 +34°C° 0 mm 3 mps 737 mmHg 36%
    11:00 +35°C° 0 mm 4 mps 737 mmHg 36%
    12:00 +35°C° 0 mm 4 mps 737 mmHg 35%
    13:00 +36°C° 0 mm 5 mps 737 mmHg 35%
    14:00 +35°C° 0 mm 5 mps 737 mmHg 36%
    15:00 +35°C° 0 mm 4 mps 737 mmHg 38%
    16:00 +34°C° 0 mm 4 mps 737 mmHg 40%
    17:00 +31°C° 0 mm 3 mps 738 mmHg 47%
    18:00 +29°C° 0 mm 2 mps 738 mmHg 53%
    19:00 +27°C° 0 mm 1 mps 738 mmHg 60%
    20:00 +26°C° 0 mm 1 mps 738 mmHg 64%
    21:00 +25°C° 0 mm 1 mps 738 mmHg 68%
    22:00 +24°C° 0 mm 1 mps 738 mmHg 72%
    23:00 +24°C° 0 mm 1 mps 739 mmHg 71%

    26 July, Wednesday

    Time Temperature Precipitation Wind Pressure Humidity
    00:00 +24°C° 0 mm 1 mps 739 mmHg 69%
    01:00 +23°C° 0 mm 1 mps 739 mmHg 68%
    02:00 +23°C° 0 mm 1 mps 739 mmHg 68%
    03:00 +23°C° 0 mm 1 mps 739 mmHg 67%
    04:00 +23°C° 0 mm 1 mps 739 mmHg 66%
    05:00 +24°C° 0 mm 1 mps 739 mmHg 61%
    06:00 +26°C° 0 mm 1 mps 739 mmHg 56%
    07:00 +28°C° 0 mm 1 mps 739 mmHg 51%
    08:00 +30°C° 0 mm 2 mps 740 mmHg 46%
    09:00 +31°C° 0 mm 2 mps 740 mmHg 41%
    10:00 +34°C° 0 mm 2 mps 740 mmHg 35%
    11:00 +35°C° 0 mm 3 mps 740 mmHg 34%
    12:00 +35°C° 0 mm 3 mps 739 mmHg 32%
    13:00 +36°C° 0 mm 4 mps 739 mmHg 31%
    14:00 +35°C° 0 mm 4 mps 739 mmHg 34%
    15:00 +34°C° 0 mm 4 mps 739 mmHg 36%
    16:00 +33°C° 0 mm 5 mps 739 mmHg 39%
    17:00 +30°C° 0 mm 4 mps 739 mmHg 45%
    18:00 +29°C° 0 mm 3 mps 740 mmHg 50%
    19:00 +27°C° 0 mm 3 mps 740 mmHg 56%
    20:00 +26°C° 0.2 mm 2 mps 740 mmHg 60%
    21:00 +25°C° 0.2 mm 2 mps 740 mmHg 64%
    22:00 +24°C° 0.2 mm 2 mps 741 mmHg 69%
    23:00 +23°C° 0.1 mm 2 mps 741 mmHg 70%
    Show more